Home > Weather > Bucaramanga > Past weeks

Flag for Colombia Past Weather in Bucaramanga, Colombia — Yesterday and Last 2 Weeks

Now
68 °F

Rain. Broken clouds.


Feels Like: 68 °F
Forecast: N/A
Wind: No wind

Location: Bucaramanga / Palonegro

Current Time: May 29, 2016 at 6:18:13 PM

Latest Report: May 29, 2016 at 6:00 PM


Visibility: 4 mi

Pressure: 30.04 "Hg (26.87 "Hg at 956m altitude)

Humidity: 100%

Dew Point: 68 °F

Location of BucaramangaLocation

Past Weather in Bucaramanga — Graph

°F

Bucaramanga Temperature Yesterday

Maximum temperature yesterday: 75 °F (at 11:00 AM)
Minimum temperature yesterday: 68 °F (at 6:00 AM)
Average temperature yesterday: 72 °F

High & Low Weather Summary for the Past Weeks

 TemperatureHumidityPressure
High84 °F (May 23, 11:00 AM)100% (May 18, 2:00 PM)30.11 "Hg (May 18, 2:00 PM)
Low66 °F (May 26, 6:00 AM)55% (May 27, 1:00 PM)29.89 "Hg (May 22, 4:00 PM)
Average74 °F82%30.01 "Hg
* Reported May 14 5:00 PM — May 29 5:00 PM, Bucaramanga, Weather by CustomWeather, © 2016

Note: Actual official high and low records may vary slightly from our data, if they occured in-between our weather recording intervals... More about our weather records

Advertising

Bucaramanga Weather History for the Previous 24 Hours

Scroll right to see more
 ConditionsComfort  
Time TempWeatherWind HumidityBarometerVisibility
5:00 PM
Sun, May 29
68 °FBroken clouds.3 mph100%30.02 "HgN/A
4:00 PM68 °FLight rain. Fog.7 mph100%30.02 "Hg0 mi
3:00 PM68 °FFog.9 mph100%30.03 "Hg0 mi
2:00 PM70 °FLight rain. Broken clouds.8 mph94%30.04 "Hg1 mi
1:00 PM72 °FScattered clouds.7 mph94%30.06 "HgN/A
12:00 PM72 °FScattered clouds.7 mph88%30.08 "HgN/A
11:00 AM77 °FScattered clouds.2 mph74%30.09 "HgN/A
10:00 AM73 °FPartly sunny.5 mph83%30.10 "HgN/A
9:00 AM70 °FPartly sunny.7 mph94%30.10 "HgN/A
8:00 AM66 °FDrizzle. Broken clouds.5 mph100%30.10 "Hg3 mi
7:00 AM66 °FRain. Partly sunny.2 mph100%30.08 "HgN/A
6:00 AM66 °FPartly sunny.2 mph100%30.07 "HgN/A
11:00 PM
Sat, May 28
70 °FDrizzle. Fog.5 mph94%30.11 "Hg5 mi
10:00 PM70 °FPassing clouds.5 mph94%30.10 "HgN/A
9:00 PM70 °FPassing clouds.2 mph94%30.09 "HgN/A
8:00 PM70 °FPartly cloudy.2 mph100%30.07 "Hg3 mi
7:00 PM70 °FPartly cloudy.5 mph100%30.04 "Hg4 mi
6:00 PM72 °FBroken clouds.7 mph88%30.00 "HgN/A
Weather by CustomWeather, © 2016

See weather overviewHow to use our weather pages